Location: Campestrin
(46.4667°N, 11.7167°E)
Time: 03:27:10
(UTC+00:00)

Cosmos 1709 Rocket - Pass Details

Date: 18 April 2021
Orbit: 947 x 1002 km, 82.9° (Epoch: 16 May)

Event Time Altitude Azimuth Distance (km) Brightness Sun altitude
Rises 21:53:46 0° 354° (N) 3,688 8.1 -29.8°
Reaches altitude 10° 21:56:23 10° 0° (N) 2,728 7.1 -29.9°
Enters shadow 22:02:05 51° 64° (ENE) 1,206 4.4 -30.3°
